Location: Richmond
(37.5536°N, 77.4606°W)
Time: 17:42:50
(UTC-05:00)

ISS - Visible Passes

Search period start: 04 March 2015 00:00
Search period end: 14 March 2015 01:00
Orbit: 394 x 406 km, 51.6° (Epoch: 04 March)

Date Brightness Start Highest point End Pass type
(mag) Time Alt. Az. Time Alt. Az. Time Alt. Az.
09 Mar -1.0 06:23:40 10° S 06:26:12 22° SE 06:28:47 10° ENE visible
10 Mar -0.2 05:31:40 10° SE 05:32:05 10° SE 05:32:38 10° ESE visible
11 Mar -2.8 06:11:52 22° SSW 06:13:38 54° SE 06:16:48 10° ENE visible
12 Mar -1.0 05:19:55 22° ESE 05:19:55 22° ESE 05:21:51 10° ENE visible
12 Mar -2.3 06:52:29 10° W 06:55:24 30° NNW 06:58:19 10° NNE visible
13 Mar -3.4 06:00:13 55° WNW 06:00:35 61° NW 06:03:47 10° NE visible
